Location: *
(2.5500°S, 65.9667°W)
Time: 12:25:46
(UTC+00:00)

Cosmos 2173 Rocket - Pass Details

Date: 05 June 2022
Orbit: 945 x 1000 km, 83.0° (Epoch: 28 June)

Event Time Altitude Azimuth Distance (km) Brightness Sun altitude
Rises 08:47:53 0° 22° (NNE) 3,667 7.7 -22.8°
Reaches altitude 10° 08:50:50 10° 34° (NE) 2,731 7.1 -22.1°
Maximum altitude 08:55:52 25° 88° (E) 1,867 6.2 -20.9°
Drops below altitude 10° 09:00:55 10° 141° (SE) 2,764 6.6 -19.8°
Sets 09:03:54 0° 154° (SSE) 3,720 7.1 -19.1°
